Year,Month,Day,Hour,Minute,Value (Times are PST for windgust in km/hr)
2019,07,23,00,00,3.20
2019,07,23,00,01,1.60
2019,07,23,00,02,4.80
2019,07,23,00,03,3.20
2019,07,23,00,04,3.20
2019,07,23,00,05,1.60
2019,07,23,00,06,3.20
2019,07,23,00,07,4.80
2019,07,23,00,08,4.80
2019,07,23,00,09,3.20
2019,07,23,00,10,3.20
2019,07,23,00,11,1.60
2019,07,23,00,12,1.60
2019,07,23,00,13,1.60
2019,07,23,00,14,3.20
2019,07,23,00,15,3.20
2019,07,23,00,16,4.80
2019,07,23,00,17,6.40
2019,07,23,00,18,6.40
2019,07,23,00,19,4.80
2019,07,23,00,20,6.40
2019,07,23,00,21,6.40
2019,07,23,00,22,1.60
2019,07,23,00,23,1.60
2019,07,23,00,24,3.20
2019,07,23,00,25,1.60
2019,07,23,00,26,1.60
2019,07,23,00,27,1.60
2019,07,23,00,30,1.60
2019,07,23,00,31,1.60
2019,07,23,00,32,1.60
2019,07,23,00,33,3.20
2019,07,23,00,34,1.60
2019,07,23,00,35,1.60
2019,07,23,00,57,1.60
2019,07,23,00,58,1.60
2019,07,23,00,59,3.20
2019,07,23,01,00,3.20
2019,07,23,01,01,1.60
2019,07,23,01,03,1.60
2019,07,23,01,04,1.60
2019,07,23,01,11,1.60
2019,07,23,01,12,1.60
2019,07,23,01,13,1.60
2019,07,23,01,14,1.60
2019,07,23,01,15,1.60
2019,07,23,01,16,1.60
2019,07,23,01,17,3.20
2019,07,23,01,18,3.20
2019,07,23,01,19,3.20
2019,07,23,01,20,3.20
2019,07,23,01,21,1.60
2019,07,23,01,22,1.60
2019,07,23,01,24,1.60
2019,07,23,01,25,1.60
2019,07,23,01,26,1.60
2019,07,23,01,27,3.20
2019,07,23,01,28,1.60
2019,07,23,01,34,3.20
2019,07,23,01,35,3.20
2019,07,23,01,36,3.20
2019,07,23,01,37,3.20
2019,07,23,01,38,3.20
2019,07,23,01,39,3.20
2019,07,23,01,41,3.20
2019,07,23,01,42,1.60
2019,07,23,01,43,6.40
2019,07,23,01,44,3.20
2019,07,23,01,45,1.60
2019,07,23,01,46,4.80
2019,07,23,01,48,1.60
2019,07,23,01,49,1.60
2019,07,23,01,50,1.60
2019,07,23,01,51,1.60
2019,07,23,01,52,1.60
2019,07,23,02,04,3.20
2019,07,23,02,05,3.20
2019,07,23,02,06,1.60
2019,07,23,02,07,1.60
2019,07,23,02,28,1.60
2019,07,23,02,33,1.60
2019,07,23,02,34,1.60
2019,07,23,02,36,1.60
2019,07,23,02,37,3.20
2019,07,23,02,38,3.20
2019,07,23,02,39,1.60
2019,07,23,03,03,3.20
2019,07,23,03,04,1.60
2019,07,23,03,05,1.60
2019,07,23,03,29,1.60
2019,07,23,03,30,1.60
2019,07,23,03,45,1.60
2019,07,23,03,46,1.60
2019,07,23,03,48,1.60
2019,07,23,03,53,1.60
2019,07,23,03,54,1.60
2019,07,23,03,56,1.60
2019,07,23,04,02,1.60
2019,07,23,04,03,1.60
2019,07,23,04,04,1.60
2019,07,23,04,05,4.80
2019,07,23,04,08,1.60
2019,07,23,04,09,1.60
2019,07,23,04,10,1.60
2019,07,23,04,11,3.20
2019,07,23,04,12,1.60
2019,07,23,04,13,3.20
2019,07,23,04,14,1.60
2019,07,23,04,15,1.60
2019,07,23,04,16,1.60
2019,07,23,04,17,1.60
2019,07,23,04,20,1.60
2019,07,23,04,21,1.60
2019,07,23,04,22,3.20
2019,07,23,04,23,1.60
2019,07,23,04,24,1.60
2019,07,23,04,26,1.60
2019,07,23,04,32,1.60
2019,07,23,04,33,1.60
2019,07,23,04,35,1.60
2019,07,23,04,37,1.60
2019,07,23,04,38,1.60
2019,07,23,04,39,1.60
2019,07,23,04,40,1.60
2019,07,23,04,41,1.60
2019,07,23,04,43,1.60
2019,07,23,04,44,1.60
2019,07,23,04,46,1.60
2019,07,23,04,47,1.60
2019,07,23,04,55,1.60
2019,07,23,04,56,1.60
2019,07,23,04,58,1.60
2019,07,23,05,00,1.60
2019,07,23,05,01,1.60
2019,07,23,05,02,1.60
2019,07,23,05,03,1.60
2019,07,23,05,04,1.60
2019,07,23,05,05,1.60
2019,07,23,05,06,1.60
2019,07,23,05,11,1.60
2019,07,23,05,12,1.60
2019,07,23,05,13,1.60
2019,07,23,05,14,1.60
2019,07,23,05,15,1.60
2019,07,23,05,17,1.60
2019,07,23,05,19,1.60
2019,07,23,05,24,1.60
2019,07,23,05,25,1.60
2019,07,23,05,27,1.60
2019,07,23,05,28,1.60
2019,07,23,05,32,1.60
2019,07,23,05,33,1.60
2019,07,23,05,34,1.60
2019,07,23,05,38,1.60
2019,07,23,05,39,1.60
2019,07,23,05,40,1.60
2019,07,23,05,41,1.60
2019,07,23,05,42,1.60
2019,07,23,05,46,1.60
2019,07,23,05,47,1.60
2019,07,23,05,48,1.60
2019,07,23,05,49,1.60
2019,07,23,05,50,1.60
2019,07,23,05,51,1.60
2019,07,23,05,54,1.60
2019,07,23,05,55,1.60
2019,07,23,05,56,1.60
2019,07,23,05,57,1.60
2019,07,23,05,58,1.60
2019,07,23,06,00,1.60
2019,07,23,06,01,1.60
2019,07,23,06,02,1.60
2019,07,23,06,03,1.60
2019,07,23,06,05,1.60
2019,07,23,06,10,1.60
2019,07,23,06,11,1.60
2019,07,23,06,12,1.60
2019,07,23,06,13,1.60
2019,07,23,06,14,1.60
2019,07,23,06,15,1.60
2019,07,23,06,16,1.60
2019,07,23,06,17,1.60
2019,07,23,06,18,1.60
2019,07,23,06,22,3.20
2019,07,23,06,23,3.20
2019,07,23,06,24,1.60
2019,07,23,06,25,1.60
2019,07,23,06,28,1.60
2019,07,23,06,29,1.60
2019,07,23,06,31,1.60
2019,07,23,06,32,1.60
2019,07,23,06,33,1.60
2019,07,23,06,34,1.60
2019,07,23,06,36,1.60
2019,07,23,06,37,1.60
2019,07,23,06,38,3.20
2019,07,23,06,39,3.20
2019,07,23,06,40,3.20
2019,07,23,06,41,1.60
2019,07,23,06,42,3.20
2019,07,23,06,43,1.60
2019,07,23,06,44,1.60
2019,07,23,06,45,1.60
2019,07,23,06,53,1.60
2019,07,23,06,58,1.60
2019,07,23,07,07,3.20
2019,07,23,07,08,1.60
2019,07,23,07,09,1.60
2019,07,23,07,10,1.60
2019,07,23,07,11,1.60
2019,07,23,07,12,3.20
2019,07,23,07,13,3.20
2019,07,23,07,14,4.80
2019,07,23,07,15,4.80
2019,07,23,07,16,6.40
2019,07,23,07,17,4.80
2019,07,23,07,18,6.40
2019,07,23,07,19,4.80
2019,07,23,07,20,3.20
2019,07,23,07,21,4.80
2019,07,23,07,22,6.40
2019,07,23,07,23,6.40
2019,07,23,07,24,4.80
2019,07,23,07,25,6.40
2019,07,23,07,26,4.80
2019,07,23,07,27,4.80
2019,07,23,07,28,3.20
2019,07,23,07,29,3.20
2019,07,23,07,30,6.40
2019,07,23,07,31,4.80
2019,07,23,07,32,6.40
2019,07,23,07,33,1.60
2019,07,23,07,34,3.20
2019,07,23,07,35,3.20
2019,07,23,07,36,1.60
2019,07,23,07,37,1.60
2019,07,23,07,38,4.80
2019,07,23,07,39,4.80
2019,07,23,07,40,4.80
2019,07,23,07,41,1.60
2019,07,23,07,42,3.20
2019,07,23,07,43,3.20
2019,07,23,07,44,6.40
2019,07,23,07,45,3.20
2019,07,23,07,46,4.80
2019,07,23,07,47,6.40
2019,07,23,07,48,4.80
2019,07,23,07,49,3.20
2019,07,23,07,50,3.20
2019,07,23,07,51,3.20
2019,07,23,07,52,4.80
2019,07,23,07,53,4.80
2019,07,23,07,54,6.40
2019,07,23,07,55,3.20
2019,07,23,07,56,12.90
2019,07,23,07,57,9.60
2019,07,23,07,58,8.10
2019,07,23,07,59,11.30
2019,07,23,08,00,8.10
2019,07,23,08,01,4.80
2019,07,23,08,02,9.60
2019,07,23,08,03,12.90
2019,07,23,08,04,8.10
2019,07,23,08,05,12.90
2019,07,23,08,06,12.90
2019,07,23,08,07,4.80
2019,07,23,08,08,6.40
2019,07,23,08,09,3.20
2019,07,23,08,10,4.80
2019,07,23,08,11,9.60
2019,07,23,08,12,4.80
2019,07,23,08,13,4.80
2019,07,23,08,14,6.40
2019,07,23,08,15,11.30
2019,07,23,08,16,3.20
2019,07,23,08,17,9.60
2019,07,23,08,18,6.40
2019,07,23,08,19,6.40
2019,07,23,08,20,3.20
2019,07,23,08,21,3.20
2019,07,23,08,22,8.10
2019,07,23,08,23,8.10
2019,07,23,08,24,9.60
2019,07,23,08,25,6.40
2019,07,23,08,26,14.50
2019,07,23,08,27,6.40
2019,07,23,08,28,6.40
2019,07,23,08,29,8.10
2019,07,23,08,30,8.10
2019,07,23,08,31,9.60
2019,07,23,08,32,9.60
2019,07,23,08,33,8.10
2019,07,23,08,34,12.90
2019,07,23,08,35,9.60
2019,07,23,08,36,9.60
2019,07,23,08,37,6.40
2019,07,23,08,38,9.60
2019,07,23,08,39,9.60
2019,07,23,08,40,14.50
2019,07,23,08,41,12.90
2019,07,23,08,42,6.40
2019,07,23,08,43,8.10
2019,07,23,08,44,6.40
2019,07,23,08,45,6.40
2019,07,23,08,46,11.30
2019,07,23,08,47,6.40
2019,07,23,08,48,4.80
2019,07,23,08,49,9.60
2019,07,23,08,50,8.10
2019,07,23,08,51,6.40
2019,07,23,08,52,6.40
2019,07,23,08,53,8.10
2019,07,23,08,54,3.20
2019,07,23,08,55,9.60
2019,07,23,08,56,11.30
2019,07,23,08,57,9.60
2019,07,23,08,58,9.60
2019,07,23,08,59,9.60
2019,07,23,09,00,12.90
2019,07,23,09,01,9.60
2019,07,23,09,02,11.30
2019,07,23,09,03,4.80
2019,07,23,09,04,6.40
2019,07,23,09,05,4.80
2019,07,23,09,06,4.80
2019,07,23,09,07,3.20
2019,07,23,09,08,6.40
2019,07,23,09,09,8.10
2019,07,23,09,10,11.30
2019,07,23,09,11,6.40
2019,07,23,09,12,6.40
2019,07,23,09,13,6.40
2019,07,23,09,14,4.80
2019,07,23,09,15,6.40
2019,07,23,09,16,6.40
2019,07,23,09,17,14.50
2019,07,23,09,18,9.60
2019,07,23,09,19,9.60
2019,07,23,09,20,11.30
2019,07,23,09,21,6.40
2019,07,23,09,22,6.40
2019,07,23,09,23,9.60
2019,07,23,09,24,6.40
2019,07,23,09,25,8.10
2019,07,23,09,26,8.10
2019,07,23,09,27,8.10
2019,07,23,09,28,4.80
2019,07,23,09,29,3.20
2019,07,23,09,30,6.40
2019,07,23,09,31,3.20
2019,07,23,09,32,6.40
2019,07,23,09,33,4.80
2019,07,23,09,34,6.40
2019,07,23,09,35,12.90
2019,07,23,09,36,8.10
2019,07,23,09,37,6.40
2019,07,23,09,38,4.80
2019,07,23,09,39,4.80
2019,07,23,09,40,6.40
2019,07,23,09,41,9.60
2019,07,23,09,42,9.60
2019,07,23,09,43,8.10
2019,07,23,09,44,12.90
2019,07,23,09,45,4.80
2019,07,23,09,46,12.90
2019,07,23,09,47,12.90
2019,07,23,09,48,12.90
2019,07,23,09,49,8.10
2019,07,23,09,50,6.40
2019,07,23,09,51,8.10
2019,07,23,09,52,6.40
2019,07,23,09,53,14.50
2019,07,23,09,54,12.90
2019,07,23,09,55,14.50
2019,07,23,09,56,9.60
2019,07,23,09,57,12.90
2019,07,23,09,58,12.90
2019,07,23,09,59,4.80
2019,07,23,10,00,6.40
2019,07,23,10,01,4.80
2019,07,23,10,02,8.10
2019,07,23,10,03,8.10
2019,07,23,10,04,4.80
2019,07,23,10,05,6.40
2019,07,23,10,06,12.90
2019,07,23,10,07,12.90
2019,07,23,10,08,9.60
2019,07,23,10,09,12.90
2019,07,23,10,10,6.40
2019,07,23,10,11,9.60
2019,07,23,10,12,9.60
2019,07,23,10,13,8.10
2019,07,23,10,14,11.30
2019,07,23,10,15,12.90
2019,07,23,10,16,4.80
2019,07,23,10,17,8.10
2019,07,23,10,18,8.10
2019,07,23,10,19,12.90
2019,07,23,10,20,12.90
2019,07,23,10,21,6.40
2019,07,23,10,22,11.30
2019,07,23,10,23,9.60
2019,07,23,10,24,6.40
2019,07,23,10,25,9.60
2019,07,23,10,26,12.90
2019,07,23,10,27,6.40
2019,07,23,10,28,4.80
2019,07,23,10,29,8.10
2019,07,23,10,30,12.90
2019,07,23,10,31,8.10
2019,07,23,10,32,8.10
2019,07,23,10,33,6.40
2019,07,23,10,34,6.40
2019,07,23,10,35,9.60
2019,07,23,10,36,8.10
2019,07,23,10,37,6.40
2019,07,23,10,38,12.90
2019,07,23,10,39,8.10
2019,07,23,10,40,8.10
2019,07,23,10,41,8.10
2019,07,23,10,42,4.80
2019,07,23,10,43,6.40
2019,07,23,10,44,4.80
2019,07,23,10,45,8.10
2019,07,23,10,46,4.80
2019,07,23,10,47,11.30
2019,07,23,10,48,9.60
2019,07,23,10,49,8.10
2019,07,23,10,50,6.40
2019,07,23,10,51,9.60
2019,07,23,10,52,6.40
2019,07,23,10,53,8.10
2019,07,23,10,54,8.10
2019,07,23,10,55,8.10
2019,07,23,10,56,12.90
2019,07,23,10,57,6.40
2019,07,23,10,58,12.90
2019,07,23,10,59,12.90
2019,07,23,11,00,8.10
2019,07,23,11,01,6.40
2019,07,23,11,02,12.90
2019,07,23,11,03,12.90
2019,07,23,11,04,11.30
2019,07,23,11,05,8.10
2019,07,23,11,06,11.30
2019,07,23,11,07,8.10
2019,07,23,11,08,14.50
2019,07,23,11,09,11.30
2019,07,23,11,10,9.60
2019,07,23,11,11,11.30
2019,07,23,11,12,6.40
2019,07,23,11,13,4.80
2019,07,23,11,14,11.30
2019,07,23,11,15,6.40
2019,07,23,11,16,9.60
2019,07,23,11,17,8.10
2019,07,23,11,18,6.40
2019,07,23,11,19,6.40
2019,07,23,11,20,8.10
2019,07,23,11,21,4.80
2019,07,23,11,22,6.40
2019,07,23,11,23,9.60
2019,07,23,11,24,12.90
2019,07,23,11,25,6.40
2019,07,23,11,26,11.30
2019,07,23,11,27,12.90
2019,07,23,11,28,6.40
2019,07,23,11,29,17.70
2019,07,23,11,30,12.90
2019,07,23,11,31,14.50
2019,07,23,11,32,6.40
2019,07,23,11,33,9.60
2019,07,23,11,34,6.40
2019,07,23,11,35,4.80
2019,07,23,11,36,14.50
2019,07,23,11,37,8.10
2019,07,23,11,38,9.60
2019,07,23,11,39,11.30
2019,07,23,11,40,11.30
2019,07,23,11,41,9.60
2019,07,23,11,42,3.20
2019,07,23,11,43,4.80
2019,07,23,11,44,11.30
2019,07,23,11,45,11.30
2019,07,23,11,46,14.50
2019,07,23,11,47,8.10
2019,07,23,11,48,16.10
2019,07,23,11,49,12.90
2019,07,23,11,50,6.40
2019,07,23,11,51,12.90
2019,07,23,11,52,11.30
2019,07,23,11,53,6.40
2019,07,23,11,54,12.90
2019,07,23,11,55,14.50
2019,07,23,11,56,6.40
2019,07,23,11,57,8.10
2019,07,23,11,58,9.60
2019,07,23,11,59,11.30
2019,07,23,12,00,14.50
2019,07,23,12,01,8.10
2019,07,23,12,02,12.90
2019,07,23,12,03,6.40
2019,07,23,12,04,11.30
2019,07,23,12,05,8.10
2019,07,23,12,06,8.10
2019,07,23,12,07,6.40
2019,07,23,12,08,12.90
2019,07,23,12,09,9.60
2019,07,23,12,10,8.10
2019,07,23,12,11,6.40
2019,07,23,12,12,8.10
2019,07,23,12,13,1.60
2019,07,23,12,14,4.80
2019,07,23,12,15,4.80
2019,07,23,12,16,4.80
2019,07,23,12,17,14.50
2019,07,23,12,18,12.90
2019,07,23,12,19,12.90
2019,07,23,12,20,12.90
2019,07,23,12,21,14.50
2019,07,23,12,22,9.60
2019,07,23,12,23,11.30
2019,07,23,12,24,8.10
2019,07,23,12,25,8.10
2019,07,23,12,26,6.40
2019,07,23,12,27,9.60
2019,07,23,12,28,8.10
2019,07,23,12,29,6.40
2019,07,23,12,30,6.40
2019,07,23,12,31,4.80
2019,07,23,12,32,3.20
2019,07,23,12,33,6.40
2019,07,23,12,34,9.60
2019,07,23,12,35,9.60
2019,07,23,12,36,6.40
2019,07,23,12,37,6.40
2019,07,23,12,38,4.80
2019,07,23,12,39,8.10
2019,07,23,12,40,6.40
2019,07,23,12,41,8.10
2019,07,23,12,42,6.40
2019,07,23,12,43,6.40
2019,07,23,12,44,9.60
2019,07,23,12,45,12.90
2019,07,23,12,46,8.10
2019,07,23,12,47,4.80
2019,07,23,12,48,4.80
2019,07,23,12,49,4.80
2019,07,23,12,50,8.10
2019,07,23,12,51,8.10
2019,07,23,12,52,4.80
2019,07,23,12,53,9.60
2019,07,23,12,54,8.10
2019,07,23,12,55,6.40
2019,07,23,12,56,9.60
2019,07,23,12,57,8.10
2019,07,23,12,58,8.10
2019,07,23,12,59,8.10
2019,07,23,13,00,8.10
2019,07,23,13,01,4.80
2019,07,23,13,02,6.40
2019,07,23,13,03,4.80
2019,07,23,13,04,3.20
2019,07,23,13,05,8.10
2019,07,23,13,06,12.90
2019,07,23,13,07,4.80
2019,07,23,13,08,4.80
2019,07,23,13,09,8.10
2019,07,23,13,10,9.60
2019,07,23,13,11,4.80
2019,07,23,13,12,8.10
2019,07,23,13,13,6.40
2019,07,23,13,14,9.60
2019,07,23,13,15,4.80
2019,07,23,13,16,8.10
2019,07,23,13,17,9.60
2019,07,23,13,18,11.30
2019,07,23,13,19,4.80
2019,07,23,13,20,3.20
2019,07,23,13,21,4.80
2019,07,23,13,22,11.30
2019,07,23,13,23,8.10
2019,07,23,13,24,8.10
2019,07,23,13,25,4.80
2019,07,23,13,26,3.20
2019,07,23,13,27,1.60
2019,07,23,13,28,6.40
2019,07,23,13,29,4.80
2019,07,23,13,30,4.80
2019,07,23,13,31,4.80
2019,07,23,13,32,6.40
2019,07,23,13,33,8.10
2019,07,23,13,34,8.10
2019,07,23,13,35,6.40
2019,07,23,13,36,4.80
2019,07,23,13,37,3.20
2019,07,23,13,38,6.40
2019,07,23,13,39,8.10
2019,07,23,13,40,6.40
2019,07,23,13,41,6.40
2019,07,23,13,42,3.20
2019,07,23,13,43,8.10
2019,07,23,13,44,11.30
2019,07,23,13,45,11.30
2019,07,23,13,46,6.40
2019,07,23,13,47,11.30
2019,07,23,13,48,11.30
2019,07,23,13,49,6.40
2019,07,23,13,50,4.80
2019,07,23,13,51,12.90
2019,07,23,13,52,12.90
2019,07,23,13,53,9.60
2019,07,23,13,54,11.30
2019,07,23,13,55,12.90
2019,07,23,13,56,8.10
2019,07,23,13,57,8.10
2019,07,23,13,58,11.30
2019,07,23,13,59,11.30
2019,07,23,14,00,9.60
2019,07,23,14,01,6.40
2019,07,23,14,02,11.30
2019,07,23,14,03,8.10
2019,07,23,14,04,11.30
2019,07,23,14,05,11.30
2019,07,23,14,06,8.10
2019,07,23,14,07,11.30
2019,07,23,14,08,9.60
2019,07,23,14,09,11.30
2019,07,23,14,10,11.30
2019,07,23,14,11,8.10
2019,07,23,14,12,11.30
2019,07,23,14,13,9.60
2019,07,23,14,14,6.40
2019,07,23,14,15,12.90
2019,07,23,14,16,9.60
2019,07,23,14,17,9.60
2019,07,23,14,18,9.60
2019,07,23,14,19,11.30
2019,07,23,14,20,8.10
2019,07,23,14,21,11.30
2019,07,23,14,22,6.40
2019,07,23,14,23,6.40
2019,07,23,14,24,4.80
2019,07,23,14,25,8.10
2019,07,23,14,26,8.10
2019,07,23,14,27,11.30
2019,07,23,14,28,6.40
2019,07,23,14,29,11.30
2019,07,23,14,30,11.30
2019,07,23,14,31,11.30
2019,07,23,14,32,6.40
2019,07,23,14,33,6.40
2019,07,23,14,34,6.40
2019,07,23,14,35,9.60
2019,07,23,14,36,6.40
2019,07,23,14,37,8.10
2019,07,23,14,38,8.10
2019,07,23,14,39,6.40
2019,07,23,14,40,9.60
2019,07,23,14,41,8.10
2019,07,23,14,42,12.90
2019,07,23,14,43,6.40
2019,07,23,14,44,8.10
2019,07,23,14,45,8.10
2019,07,23,14,46,8.10
2019,07,23,14,47,8.10
2019,07,23,14,48,9.60
2019,07,23,14,49,4.80
2019,07,23,14,50,8.10
2019,07,23,14,51,4.80
2019,07,23,14,52,6.40
2019,07,23,14,53,9.60
2019,07,23,14,54,9.60
2019,07,23,14,55,9.60
2019,07,23,14,56,12.90
2019,07,23,14,57,12.90
2019,07,23,14,58,9.60
2019,07,23,14,59,9.60
2019,07,23,15,00,9.60
2019,07,23,15,01,8.10
2019,07,23,15,02,8.10
2019,07,23,15,03,8.10
2019,07,23,15,04,12.90
2019,07,23,15,05,9.60
2019,07,23,15,06,9.60
2019,07,23,15,07,11.30
2019,07,23,15,08,11.30
2019,07,23,15,09,11.30
2019,07,23,15,10,4.80
2019,07,23,15,11,8.10
2019,07,23,15,12,8.10
2019,07,23,15,13,11.30
2019,07,23,15,14,9.60
2019,07,23,15,15,6.40
2019,07,23,15,16,12.90
2019,07,23,15,17,6.40
2019,07,23,15,18,12.90
2019,07,23,15,19,11.30
2019,07,23,15,20,11.30
2019,07,23,15,21,11.30
2019,07,23,15,22,12.90
2019,07,23,15,23,6.40
2019,07,23,15,24,9.60
2019,07,23,15,25,8.10
2019,07,23,15,26,11.30
2019,07,23,15,27,9.60
2019,07,23,15,28,9.60
2019,07,23,15,29,11.30
2019,07,23,15,30,11.30
2019,07,23,15,31,11.30
2019,07,23,15,32,11.30
2019,07,23,15,33,9.60
2019,07,23,15,34,9.60
2019,07,23,15,35,11.30
2019,07,23,15,36,9.60
2019,07,23,15,37,11.30
2019,07,23,15,38,6.40
2019,07,23,15,39,11.30
2019,07,23,15,40,11.30
2019,07,23,15,41,9.60
2019,07,23,15,42,8.10
2019,07,23,15,43,9.60
2019,07,23,15,44,8.10
2019,07,23,15,45,11.30
2019,07,23,15,46,12.90
2019,07,23,15,47,12.90
2019,07,23,15,48,17.70
2019,07,23,15,49,9.60
2019,07,23,15,50,12.90
2019,07,23,15,51,12.90
2019,07,23,15,52,11.30
2019,07,23,15,53,11.30
2019,07,23,15,54,9.60
2019,07,23,15,55,11.30
2019,07,23,15,56,8.10
2019,07,23,15,57,16.10
2019,07,23,15,58,11.30
2019,07,23,15,59,6.40
2019,07,23,16,00,9.60
2019,07,23,16,01,12.90
2019,07,23,16,02,12.90
2019,07,23,16,03,9.60
2019,07,23,16,04,11.30
2019,07,23,16,05,11.30
2019,07,23,16,06,9.60
2019,07,23,16,07,6.40
2019,07,23,16,08,6.40
2019,07,23,16,09,8.10
2019,07,23,16,10,11.30
2019,07,23,16,11,14.50
2019,07,23,16,12,11.30
2019,07,23,16,13,12.90
2019,07,23,16,14,8.10
2019,07,23,16,15,6.40
2019,07,23,16,16,6.40
2019,07,23,16,17,6.40
2019,07,23,16,18,9.60
2019,07,23,16,19,9.60
2019,07,23,16,20,6.40
2019,07,23,16,21,3.20
2019,07,23,16,22,4.80
2019,07,23,16,23,9.60
2019,07,23,16,24,8.10
2019,07,23,16,25,4.80
2019,07,23,16,26,8.10
2019,07,23,16,27,9.60
2019,07,23,16,28,8.10
2019,07,23,16,29,8.10
2019,07,23,16,30,11.30
2019,07,23,16,31,6.40
2019,07,23,16,32,9.60
2019,07,23,16,33,9.60
2019,07,23,16,34,4.80
2019,07,23,16,35,12.90
2019,07,23,16,36,14.50
2019,07,23,16,37,12.90
2019,07,23,16,38,12.90
2019,07,23,16,39,8.10
2019,07,23,16,40,4.80
2019,07,23,16,41,6.40
2019,07,23,16,42,6.40
2019,07,23,16,43,11.30
2019,07,23,16,44,11.30
2019,07,23,16,45,9.60
2019,07,23,16,46,9.60
2019,07,23,16,47,6.40
2019,07,23,16,48,12.90
2019,07,23,16,49,9.60
2019,07,23,16,50,9.60
2019,07,23,16,51,12.90
2019,07,23,16,52,11.30
2019,07,23,16,53,12.90
2019,07,23,16,54,4.80
2019,07,23,16,55,12.90
2019,07,23,16,56,14.50
2019,07,23,16,57,14.50
2019,07,23,16,58,11.30
2019,07,23,16,59,12.90
2019,07,23,17,00,14.50
2019,07,23,17,01,12.90
2019,07,23,17,02,9.60
2019,07,23,17,03,4.80
2019,07,23,17,04,6.40
2019,07,23,17,05,9.60
2019,07,23,17,06,11.30
2019,07,23,17,07,4.80
2019,07,23,17,08,6.40
2019,07,23,17,09,8.10
2019,07,23,17,10,14.50
2019,07,23,17,11,12.90
2019,07,23,17,12,12.90
2019,07,23,17,13,12.90
2019,07,23,17,14,8.10
2019,07,23,17,15,6.40
2019,07,23,17,16,14.50
2019,07,23,17,17,8.10
2019,07,23,17,18,12.90
2019,07,23,17,19,9.60
2019,07,23,17,20,8.10
2019,07,23,17,21,9.60
2019,07,23,17,22,9.60
2019,07,23,17,23,6.40
2019,07,23,17,24,9.60
2019,07,23,17,25,9.60
2019,07,23,17,26,12.90
2019,07,23,17,27,8.10
2019,07,23,17,28,6.40
2019,07,23,17,29,14.50
2019,07,23,17,30,14.50
2019,07,23,17,31,11.30
2019,07,23,17,32,12.90
2019,07,23,17,33,9.60
2019,07,23,17,34,12.90
2019,07,23,17,35,6.40
2019,07,23,17,36,12.90
2019,07,23,17,37,9.60
2019,07,23,17,38,6.40
2019,07,23,17,39,8.10
2019,07,23,17,40,6.40
2019,07,23,17,41,11.30
2019,07,23,17,42,11.30
2019,07,23,17,43,8.10
2019,07,23,17,44,4.80
2019,07,23,17,45,9.60
2019,07,23,17,46,4.80
2019,07,23,17,47,1.60
2019,07,23,17,48,3.20
2019,07,23,17,49,3.20
2019,07,23,17,50,3.20
2019,07,23,17,51,1.60
2019,07,23,17,52,1.60
2019,07,23,17,53,1.60
2019,07,23,17,54,1.60
2019,07,23,17,55,1.60
2019,07,23,17,56,3.20
2019,07,23,17,57,4.80
2019,07,23,17,58,8.10
2019,07,23,17,59,19.30
2019,07,23,18,00,32.20
2019,07,23,18,01,25.70
2019,07,23,18,02,14.50
2019,07,23,18,03,6.40
2019,07,23,18,04,16.10
2019,07,23,18,05,40.20
2019,07,23,18,06,29.00
2019,07,23,18,07,35.40
2019,07,23,18,08,25.70
2019,07,23,18,09,24.20
2019,07,23,18,10,22.50
2019,07,23,18,11,17.70
2019,07,23,18,12,25.70
2019,07,23,18,13,16.10
2019,07,23,18,14,20.90
2019,07,23,18,15,17.70
2019,07,23,18,16,17.70
2019,07,23,18,17,14.50
2019,07,23,18,18,19.30
2019,07,23,18,19,17.70
2019,07,23,18,20,16.10
2019,07,23,18,21,8.10
2019,07,23,18,22,11.30
2019,07,23,18,23,17.70
2019,07,23,18,24,12.90
2019,07,23,18,25,12.90
2019,07,23,18,26,9.60
2019,07,23,18,27,6.40
2019,07,23,18,28,6.40
2019,07,23,18,29,12.90
2019,07,23,18,30,14.50
2019,07,23,18,31,12.90
2019,07,23,18,32,12.90
2019,07,23,18,33,11.30
2019,07,23,18,34,6.40
2019,07,23,18,35,14.50
2019,07,23,18,36,9.60
2019,07,23,18,37,9.60
2019,07,23,18,38,11.30
2019,07,23,18,39,11.30
2019,07,23,18,40,11.30
2019,07,23,18,41,6.40
2019,07,23,18,42,9.60
2019,07,23,18,43,4.80
2019,07,23,18,44,4.80
2019,07,23,18,45,12.90
2019,07,23,18,46,12.90
2019,07,23,18,47,9.60
2019,07,23,18,48,8.10
2019,07,23,18,49,12.90
2019,07,23,18,50,12.90
2019,07,23,18,51,14.50
2019,07,23,18,52,19.30
2019,07,23,18,53,12.90
2019,07,23,18,54,12.90
2019,07,23,18,55,16.10
2019,07,23,18,56,17.70
2019,07,23,18,57,11.30
2019,07,23,18,58,14.50
2019,07,23,18,59,14.50
2019,07,23,19,00,11.30
2019,07,23,19,01,11.30
2019,07,23,19,02,14.50
2019,07,23,19,03,9.60
2019,07,23,19,04,9.60
2019,07,23,19,05,14.50
2019,07,23,19,06,17.70
2019,07,23,19,07,16.10
2019,07,23,19,08,11.30
2019,07,23,19,09,6.40
2019,07,23,19,10,12.90
2019,07,23,19,11,9.60
2019,07,23,19,12,22.50
2019,07,23,19,13,16.10
2019,07,23,19,14,9.60
2019,07,23,19,15,12.90
2019,07,23,19,16,17.70
2019,07,23,19,17,14.50
2019,07,23,19,18,4.80
2019,07,23,19,19,9.60
2019,07,23,19,20,14.50
2019,07,23,19,21,16.10
2019,07,23,19,22,6.40
2019,07,23,19,23,4.80
2019,07,23,19,24,11.30
2019,07,23,19,25,12.90
2019,07,23,19,26,12.90
2019,07,23,19,27,17.70
2019,07,23,19,28,19.30
2019,07,23,19,29,9.60
2019,07,23,19,30,6.40
2019,07,23,19,31,17.70
2019,07,23,19,32,12.90
2019,07,23,19,33,12.90
2019,07,23,19,34,6.40
2019,07,23,19,35,19.30
2019,07,23,19,36,17.70
2019,07,23,19,37,8.10
2019,07,23,19,38,12.90
2019,07,23,19,39,11.30
2019,07,23,19,40,11.30
2019,07,23,19,41,14.50
2019,07,23,19,42,6.40
2019,07,23,19,43,6.40
2019,07,23,19,44,11.30
2019,07,23,19,45,12.90
2019,07,23,19,46,14.50
2019,07,23,19,47,11.30
2019,07,23,19,48,12.90
2019,07,23,19,49,14.50
2019,07,23,19,50,11.30
2019,07,23,19,51,6.40
2019,07,23,19,52,8.10
2019,07,23,19,53,11.30
2019,07,23,19,54,6.40
2019,07,23,19,55,6.40
2019,07,23,19,56,16.10
2019,07,23,19,57,16.10
2019,07,23,19,58,11.30
2019,07,23,19,59,11.30
2019,07,23,20,00,11.30
2019,07,23,20,01,8.10
2019,07,23,20,02,16.10
2019,07,23,20,03,14.50
2019,07,23,20,04,12.90
2019,07,23,20,05,11.30
2019,07,23,20,06,11.30
2019,07,23,20,07,17.70
2019,07,23,20,08,14.50
2019,07,23,20,09,14.50
2019,07,23,20,10,22.50
2019,07,23,20,11,9.60
2019,07,23,20,12,16.10
2019,07,23,20,13,11.30
2019,07,23,20,14,12.90
2019,07,23,20,15,11.30
2019,07,23,20,16,14.50
2019,07,23,20,17,17.70
2019,07,23,20,18,22.50
2019,07,23,20,19,11.30
2019,07,23,20,20,12.90
2019,07,23,20,21,9.60
2019,07,23,20,22,11.30
2019,07,23,20,23,8.10
2019,07,23,20,24,11.30
2019,07,23,20,25,6.40
2019,07,23,20,26,9.60
2019,07,23,20,27,11.30
2019,07,23,20,28,14.50
2019,07,23,20,29,8.10
2019,07,23,20,30,8.10
2019,07,23,20,31,11.30
2019,07,23,20,32,11.30
2019,07,23,20,33,3.20
2019,07,23,20,34,3.20
2019,07,23,20,35,4.80
2019,07,23,20,36,6.40
2019,07,23,20,37,4.80
2019,07,23,20,38,4.80
2019,07,23,20,39,8.10
2019,07,23,20,40,8.10
2019,07,23,20,41,6.40
2019,07,23,20,42,4.80
2019,07,23,20,43,6.40
2019,07,23,20,44,11.30
2019,07,23,20,45,6.40
2019,07,23,20,46,9.60
2019,07,23,20,47,3.20
2019,07,23,20,48,4.80
2019,07,23,20,49,1.60
2019,07,23,20,50,8.10
2019,07,23,20,51,4.80
2019,07,23,20,52,3.20
2019,07,23,20,53,6.40
2019,07,23,20,54,14.50
2019,07,23,20,55,11.30
2019,07,23,20,56,6.40
2019,07,23,20,57,8.10
2019,07,23,20,58,8.10
2019,07,23,20,59,6.40
2019,07,23,21,00,12.90
2019,07,23,21,01,12.90
2019,07,23,21,02,11.30
2019,07,23,21,03,11.30
2019,07,23,21,04,16.10
2019,07,23,21,05,9.60
2019,07,23,21,06,11.30
2019,07,23,21,07,8.10
2019,07,23,21,08,11.30
2019,07,23,21,09,11.30
2019,07,23,21,10,11.30
2019,07,23,21,11,12.90
2019,07,23,21,12,9.60
2019,07,23,21,13,12.90
2019,07,23,21,14,11.30
2019,07,23,21,15,14.50
2019,07,23,21,16,11.30
2019,07,23,21,17,12.90
2019,07,23,21,18,9.60
2019,07,23,21,19,9.60
2019,07,23,21,20,9.60
2019,07,23,21,21,11.30
2019,07,23,21,22,6.40
2019,07,23,21,23,6.40
2019,07,23,21,24,14.50
2019,07,23,21,25,12.90
2019,07,23,21,26,12.90
2019,07,23,21,27,11.30
2019,07,23,21,28,16.10
2019,07,23,21,29,14.50
2019,07,23,21,30,14.50
2019,07,23,21,31,6.40
2019,07,23,21,32,6.40
2019,07,23,21,33,6.40
2019,07,23,21,34,9.60